Regional Weather Roundup
Issued by NWS Northern Indiana

Home | Current Version | Previous Version | Text Only | Print | Product List | Glossary Off
Versions: 1 2 3 4 5 6 7 8 9 10 11 12 13 14 15 16 17 18 19 20 21 22 23 24 25 26 27 28 29 30 31 32 33 34 35 36 37 38 39 40 41 42 43 44 45 46 47 48 49 50

000
ASUS43 KIWX 240910
RWRIWX

KIWX WEATHER ROUNDUP
NATIONAL WEATHER SERVICE NORTHERN INDIANA
500 AM EDT THU JUL 24 2014

NOTE: "FAIR" INDICATES FEW OR NO CLOUDS BELOW 12,000 FEET WITH NO
SIGNIFICANT WEATHER AND/OR OBSTRUCTIONS TO VISIBILITY.

* THESE STATIONS ARE NOT UNDER NWS QUALITY CONTROL. THEY ALSO MAY NOT
  REPORT WEATHER SUCH AS PRECIPITATION OR FOG.

INZ001>027-241000-
NORTHERN INDIANA

CITY           SKY/WX    TMP DP  RH WIND       PRES   REMARKS
GARY*          CLEAR     64  57  77 NE8       30.12S
VALPARAISO     CLEAR     57  53  86 NE6       30.11S
MICHIGAN CITY* CLEAR     52  52 100 CALM      30.11S
LAPORTE*       PTCLDY    56  53  88 N8        30.11S
KNOX*          CLEAR     52  50  93 N5        30.09S
SOUTH BEND     CLEAR     55  51  86 N6        30.11S
GOSHEN         CLEAR     58  55  90 N7        30.09S
MONTICELLO*    CLEAR     57  55  95 N7        30.07S
LOGANSPORT*    CLEAR     54  52  94 N5        30.08S
ROCHESTER*     CLEAR     57  55  94 N3        30.08S
WARSAW*        MOCLDY    57  55  94 NE3       30.09S
ANGOLA*        MOCLDY    59  57  94 CALM      30.09S
FORT WAYNE     MOCLDY    64  60  87 NE6       30.08R
HUNTINGTON*    CLOUDY    60  58  95 CALM      30.07S
PERU/GRISSOM   CLEAR     56  56 100 N6        30.07S
MARION*        MOCLDY    57  56  97 CALM      30.08R

$$
INZ028>050-241000-
CENTRAL INDIANA

CITY           SKY/WX    TMP DP  RH WIND       PRES   REMARKS
LAFAYETTE      CLEAR     55  53  93 CALM      30.07F
KOKOMO*        PTCLDY    55  54  94 NE3       30.07S
MUNCIE*        CLOUDY    60  58  92 NE6       30.06S FOG
INDIANAPOLIS   MOCLDY    60  56  86 N9        30.04R

$$
MIZ043>046-050>051-056>058-064>065-071>073-077>080-241000-
SOUTHWEST LOWER MICHIGAN

CITY           SKY/WX    TMP DP  RH WIND       PRES   REMARKS
BATTLE CREEK   MOCLDY    58  54  86 N5        30.11S
BENTON HARBOR  MOCLDY    55  52  89 N3        30.11F
COLDWATER*     CLEAR     58  55  91 CALM      30.09F
HILLSDALE*     CLEAR     56  54  92 CALM      30.09S
HOLLAND        PTCLDY    58  51  78 NE3       30.13S
GRAND RAPIDS   MOCLDY    57  52  83 NE5       30.13S
KALAMAZOO      CLOUDY    58  54  86 N6        30.11S
STURGIS*       CLOUDY    57  55  94 N3        30.09S
THREE RIVERS*  CLOUDY    58  56  94 CALM      30.11S

$$
OHZ001>008-015>018-024>025-241000-
NORTHWEST OHIO

CITY           SKY/WX    TMP DP  RH WIND       PRES   REMARKS
WAUSEON*       FAIR      55  54  94 N7        30.08R
DEFIANCE       MOCLDY    59  54  83 N3        30.08R
FINDLAY        CLEAR     58  54  86 NE5       30.05S
TOLEDO EXPRESS CLEAR     55  52  89 N6        30.07R
TOLEDO METCALF CLEAR     58  51  78 N5        30.07R
LIMA           CLEAR     58  56  93 N5        30.07R

$$
&&



USA.gov is the U.S. government's official web portal to all federal, state and local government web resources and services.